Regional Weather Roundup
Issued by NWS Charleston, WV

Home | Current Version | Previous Version | Text Only | Print | Product List | Glossary Off
Versions: 1 2 3 4 5 6 7 8 9 10 11 12 13 14 15 16 17 18 19 20 21 22 23 24 25 26 27 28 29 30 31 32 33 34 35 36 37 38 39 40 41 42 43 44 45 46 47 48 49 50

000
ASUS41 KRLX 031610
RWRRLX
West Virginia Regional Weather Roundup
National Weather Service Charleston WV
1200 PM EDT WED JUN 03 2015

Note: "fair" indicates few or no clouds below 12,000 feet with no
significant weather and/or obstructions to visibility.

WVZ003-031700-
Northern Panhandle of West Virginia

CITY           SKY/WX    TMP DP  RH WIND       PRES   REMARKS
WHEELING       PTSUNNY   66  55  67 E7        30.12S
$$

WVZ009-031700-
Northwest West Virginia

CITY           SKY/WX    TMP DP  RH WIND       PRES   REMARKS
PARKERSBURG    PTSUNNY   69  58  67 NE3       30.12S
$$

WVZ006-031700-
Western West Virginia

CITY           SKY/WX    TMP DP  RH WIND       PRES   REMARKS
HUNTINGTON     CLOUDY    64  59  83 N3        30.08S
$$

WVZ015-031700-
West Central West Virginia

CITY           SKY/WX    TMP DP  RH WIND       PRES   REMARKS
CHARLESTON     PTSUNNY   70  60  70 CALM      30.08R
$$

WVZ022-031-031700-
North Central West Virginia

CITY           SKY/WX    TMP DP  RH WIND       PRES   REMARKS
CLARKSBURG     CLOUDY    68  58  70 E6        30.11R
MORGANTOWN     PTSUNNY   72  54  53 E8        30.12S
$$

WVZ025-035-042-045-031700-
Southern West Virginia

CITY           SKY/WX    TMP DP  RH WIND       PRES   REMARKS
BECKLEY        CLOUDY    63  55  75 E12       30.14R
LOGAN          CLOUDY    70  61  73 VRB6      30.05R
BLUEFIELD      CLOUDY    62  56  80 VRB6      30.15R
LEWISBURG      CLOUDY    61  57  86 CALM      30.15S
$$

WVZ047-031700-
Northern Mountains of West Virginia

CITY           SKY/WX    TMP DP  RH WIND       PRES   REMARKS
ELKINS         CLOUDY    69  56  62 VRB6      30.12S
$$

WVZ052-031700-
Eastern Panhandle of West Virginia

CITY           SKY/WX    TMP DP  RH WIND       PRES   REMARKS
MARTINSBURG    CLOUDY    60  53  77 NE6       30.21R
PETERSBURG     CLOUDY    59  51  77 E3        30.20R
$$



USA.gov is the U.S. government's official web portal to all federal, state and local government web resources and services.